Back to catalog

FENGYUN 1C DEB

AlivePO
NORAD 30521·DEBRIS·🇨🇳 China

Launched May 10, 1999 from Taiyuan Satellite Launch Center

Loading…

Next Passes (next 24 hours)

TLE

FreshSource: Space-Track

Epoch: Sep 14, 2026, 10:01 UTC

1 30521U 99025AJK 26257.41798203  .00002049  00000-0  38936-3 0  9999
2 30521  99.0237  60.9517 0133655 124.5052 236.8851 14.59848689 36007

Track FENGYUN 1C DEB in real time with AllMySat

Download on the App Store